Regional Weather Roundup
Issued by NWS

Home | Current Version | Previous Version | Text Only | Print | Product List | Glossary On
Versions: 1 2 3 4 5 6 7 8 9 10 11 12 13 14 15 16 17 18 19 20 21 22 23 24 25 26 27 28 29 30 31 32 33 34 35 36 37 38 39 40 41 42 43 44 45 46 47 48 49 50
972
ASUS43 KBIS 200110
RWRND

NORTH DAKOTA REGIONAL WEATHER ROUNDUP
NATIONAL WEATHER SERVICE BISMARCK ND
700 PM CST SUN NOV 19 2017

NOTE: "FAIR" INDICATES FEW OR NO CLOUDS BELOW 12,000 FEET WITH NO
SIGNIFICANT WEATHER AND/OR OBSTRUCTIONS TO VISIBILITY.


NDZ001>003-009>011-017-200200-
NORTHWEST NORTH DAKOTA

CITY           SKY/WX    TMP DP  RH WIND       PRES   REMARKS
WILLISTON      CLOUDY    31  20  63 S6        29.62F
MINOT          CLOUDY    31  24  75 S10       29.64F
MINOT AFB      CLOUDY    27  22  83 S10       29.63F WCI  17
$$

NDZ018>021-031>035-040>046-200200-
SOUTHWEST NORTH DAKOTA

CITY           SKY/WX    TMP DP  RH WIND       PRES   REMARKS
BISMARCK       CLOUDY    33  24  69 CALM      29.72F
DICKINSON      CLOUDY    29  19  66 S10       29.66F WCI  20
GARRISON         N/A     30  25  81 SW5       29.68F
HETTINGER ARPT PTCLDY    36  18  48 S6        29.73F
$$

NDZ004>008-012>016-024-026-027-054-200200-
NORTHEAST NORTH DAKOTA

CITY           SKY/WX    TMP DP  RH WIND       PRES   REMARKS
GRAND FORKS    CLOUDY    22  21  96 CALM      29.76F
GRND FRKS AFB  CLEAR     19  18  96 CALM      29.76F
DEVILS LAKE    CLOUDY    24  22  91 CALM      29.72F
$$

NDZ022-023-025-028>030-036>039-047>053-200200-
SOUTHEAST NORTH DAKOTA

CITY           SKY/WX    TMP DP  RH WIND       PRES   REMARKS
FARGO          CLOUDY    27  22  81 CALM      29.77S
JAMESTOWN      CLOUDY    28  23  81 S3        29.73F
$$





USA.gov is the U.S. government's official web portal to all federal, state and local government web resources and services.